PBO Station Position Time Series. Reference Frame : NAM14
Format Version,1.1.1
4-character ID,BYAH
Station name,BYAH_KIVU_RW2022
Begin Date, 2022-08-04
End Date, 2023-06-26
Release Date, 2023-06-27
Reference position, -1.6627052349 North Latitude, 29.2646134412 East Longitude, 1596.26345 meters elevation,
Date, North (mm), East (mm), Vertical (mm), North Std. Deviation (mm), East Std. Deviation (mm),              Vertical Std. Deviation (mm), Quality,
2022-08-04,0.00, 0.00, 0.00, 2.23, 2.15, 8.92, suppf,
2022-08-05,1.23, 1.94, 4.68, 2.10, 2.13, 8.27, suppf,
2022-08-06,3.24, 2.91, -2.03, 2.12, 2.11, 8.25, suppf,
2022-08-07,2.41, 1.32, 17.50, 2.11, 2.13, 8.22, suppf,
2022-08-08,-0.51, 2.00, 13.49, 2.16, 2.18, 8.53, suppf,
2022-08-09,0.97, -1.87, 5.54, 2.14, 2.14, 8.37, suppf,
2022-08-10,1.23, -4.56, 3.66, 2.15, 2.14, 8.36, suppf,
2022-08-11,5.51, 3.05, -5.26, 2.23, 2.22, 8.75, suppf,
2022-08-12,2.08, -0.45, 7.22, 2.16, 2.15, 8.50, suppf,
2022-08-13,-0.14, -0.86, 7.63, 2.11, 2.11, 8.20, suppf,
2022-08-14,1.25, 2.80, -3.69, 2.13, 2.12, 8.30, suppf,
2022-08-15,-0.35, -0.50, -0.37, 2.13, 2.12, 8.23, suppf,
2022-08-16,0.53, 3.11, 6.48, 2.12, 2.13, 8.29, suppf,
2022-08-17,0.91, 3.46, -8.68, 2.17, 2.19, 8.44, suppf,
2022-08-18,-1.70, 3.36, 6.91, 2.14, 2.14, 8.26, suppf,
2022-08-19,4.61, 1.13, 7.83, 2.22, 2.26, 8.60, suppf,
2022-08-20,1.95, -0.12, 1.59, 2.12, 2.13, 8.16, suppf,
2022-08-21,0.09, -1.12, 8.24, 2.17, 2.21, 8.66, suppf,
2022-08-22,1.91, -2.86, 7.07, 2.09, 2.12, 8.14, suppf,
2022-08-23,-0.25, -1.29, 4.19, 2.24, 2.25, 8.63, suppf,
2022-08-24,-0.72, -2.53, 12.57, 2.26, 2.25, 8.71, suppf,
2022-08-25,-0.54, -0.32, 6.57, 2.16, 2.17, 8.66, suppf,
2022-08-26,-0.04, 1.75, -7.50, 2.14, 2.17, 8.52, suppf,
2022-08-27,2.39, 3.34, -6.49, 2.20, 2.16, 8.58, suppf,
2022-08-28,-0.18, -2.39, -4.16, 2.15, 2.15, 8.42, suppf,
2022-08-29,-2.26, -2.21, -4.42, 2.15, 2.19, 8.59, suppf,
2022-08-30,1.53, -0.03, 3.52, 2.09, 2.19, 8.42, suppf,
2022-08-31,-1.22, -1.00, -0.48, 2.12, 2.19, 8.47, suppf,
2022-09-01,-3.13, 3.85, -11.07, 2.07, 2.14, 8.10, suppf,
2022-09-02,2.81, 0.52, -4.98, 2.11, 2.19, 8.49, suppf,
2022-09-03,0.40, -3.11, -4.09, 2.13, 2.18, 8.30, suppf,
2022-09-04,-2.17, 0.60, 1.74, 2.14, 2.16, 8.28, suppf,
2022-09-05,-3.03, 1.22, -6.36, 2.10, 2.15, 8.18, suppf,
2022-09-06,-2.84, 1.00, -15.36, 2.11, 2.17, 8.23, suppf,
2022-09-07,-1.27, -8.99, 1.27, 2.10, 2.16, 8.31, suppf,
2022-09-08,-1.53, -3.01, 4.73, 2.22, 2.28, 8.69, suppf,
2022-09-09,1.80, -5.44, 3.82, 2.15, 2.18, 8.37, suppf,
2022-09-10,-3.56, -0.48, -7.28, 2.15, 2.20, 8.43, suppf,
2022-09-11,3.42, -3.96, -9.21, 2.20, 2.17, 8.38, suppf,
2022-09-12,3.45, 1.00, -10.40, 2.13, 2.18, 8.22, suppf,
2022-09-13,-0.06, -6.29, -11.98, 2.24, 2.23, 8.79, suppf,
2022-09-14,-2.79, -1.40, -7.45, 2.22, 2.33, 8.89, suppf,
2022-09-15,0.53, -1.23, -15.17, 2.34, 2.38, 9.21, suppf,
2022-09-16,3.04, 0.99, -6.74, 2.26, 2.30, 8.98, suppf,
2022-09-17,2.01, -0.51, -8.53, 2.15, 2.21, 8.42, suppf,
2022-09-18,2.91, -2.09, -4.04, 2.16, 2.19, 8.37, suppf,
2022-09-19,5.31, 0.12, -1.80, 2.12, 2.20, 8.24, suppf,
2022-09-20,2.77, -1.43, -12.97, 2.18, 2.23, 8.69, suppf,
2022-09-21,-0.07, -5.12, 0.66, 2.28, 2.37, 9.45, suppf,
2022-09-22,0.73, 3.49, -5.74, 2.22, 2.37, 9.20, suppf,
2022-09-23,-2.26, -1.42, -7.81, 2.21, 2.25, 8.56, suppf,
2022-09-24,-0.98, -1.68, -18.99, 2.25, 2.35, 8.95, suppf,
2022-09-25,2.51, -4.53, -11.06, 2.16, 2.22, 8.46, suppf,
2022-09-26,1.40, -1.54, -1.15, 2.31, 2.48, 9.57, suppf,
2022-09-27,-4.46, -1.05, -22.56, 2.30, 2.36, 9.28, suppf,
2022-09-28,-4.67, -5.73, -15.45, 2.35, 2.37, 9.45, suppf,
2022-09-29,-1.93, -2.67, 1.15, 2.36, 2.47, 9.73, suppf,
2022-09-30,0.37, -1.66, -1.29, 2.23, 2.30, 8.86, suppf,
2022-10-01,2.01, 0.33, 1.25, 2.28, 2.34, 9.06, suppf,
2022-10-02,0.26, 1.74, 3.81, 2.31, 2.38, 9.30, suppf,
2022-10-03,-0.56, -3.05, 3.25, 2.24, 2.28, 8.74, suppf,
2022-10-04,6.01, -4.75, 5.49, 2.20, 2.23, 8.64, suppf,
2022-10-05,4.96, -2.08, -9.20, 2.26, 2.37, 9.05, suppf,
2022-10-06,5.03, 1.04, -7.44, 2.27, 2.36, 8.73, suppf,
2022-10-07,5.58, -0.29, 10.11, 2.32, 2.38, 8.85, suppf,
2022-10-08,0.24, 2.13, -2.34, 2.31, 2.39, 9.07, suppf,
2022-10-09,5.34, 1.25, 2.32, 2.16, 2.21, 8.36, suppf,
2022-10-10,8.40, 5.10, 6.19, 2.20, 2.32, 9.02, suppf,
2022-10-11,-1.35, 4.73, -4.84, 2.24, 2.36, 9.00, suppf,
2022-10-12,4.35, -2.65, -4.41, 2.24, 2.37, 9.06, suppf,
2022-10-13,1.27, -4.26, 14.86, 2.28, 2.41, 9.14, suppf,
2022-10-14,-0.21, -2.07, 10.42, 2.20, 2.27, 8.79, suppf,
2022-10-15,-3.42, -6.60, 7.80, 2.25, 2.44, 9.43, suppf,
2022-10-16,-2.55, 1.26, 6.13, 2.16, 2.21, 8.51, suppf,
2022-10-17,4.81, 1.46, 0.29, 2.19, 2.26, 8.66, suppf,
2022-10-18,-0.12, -1.61, 6.91, 2.27, 2.25, 8.72, suppf,
2022-10-19,-1.17, -2.23, 16.07, 2.36, 2.37, 9.17, suppf,
2022-10-20,-1.41, -1.42, 12.39, 2.20, 2.20, 8.70, suppf,
2022-10-21,-0.16, -0.11, 3.93, 2.10, 2.14, 8.26, suppf,
2022-10-22,-0.45, 2.09, 4.91, 2.17, 2.25, 8.73, suppf,
2022-10-23,-2.99, 3.41, 9.57, 2.12, 2.20, 8.50, suppf,
2022-10-24,0.62, 0.57, 6.09, 2.15, 2.26, 8.91, suppf,
2022-10-25,-0.45, 2.07, -4.02, 2.14, 2.19, 8.56, suppf,
2022-10-26,6.18, 5.45, 11.47, 2.24, 2.22, 8.89, suppf,
2022-10-27,4.81, 9.01, -6.62, 2.21, 2.24, 8.87, suppf,
2022-10-28,3.03, 9.24, -0.78, 2.18, 2.21, 8.61, suppf,
2022-10-29,3.51, 3.69, 7.22, 2.11, 2.17, 8.28, suppf,
2022-10-30,-1.06, 3.03, 4.75, 2.11, 2.21, 8.57, suppf,
2022-10-31,6.14, 2.85, 2.89, 2.11, 2.16, 8.30, suppf,
2022-11-01,3.17, 0.62, 14.32, 2.12, 2.14, 8.46, suppf,
2022-11-02,1.84, -0.28, -2.33, 2.17, 2.26, 8.65, suppf,
2022-11-03,-0.10, -0.39, 8.14, 2.19, 2.25, 8.60, suppf,
2022-11-04,1.26, 2.10, 15.54, 2.11, 2.17, 8.30, suppf,
2022-11-05,8.89, 0.03, 15.64, 2.11, 2.18, 8.46, suppf,
2022-11-06,2.66, -4.79, 7.00, 2.10, 2.13, 8.29, suppf,
2022-11-07,6.36, -2.03, 7.11, 2.12, 2.18, 8.30, suppf,
2022-11-08,8.43, 0.47, -2.77, 2.15, 2.18, 8.50, suppf,
2022-11-09,7.66, 1.18, 14.43, 2.10, 2.14, 8.32, suppf,
2022-11-10,9.65, -7.90, 5.62, 2.19, 2.18, 8.59, suppf,
2022-11-11,8.99, -3.43, -6.20, 2.09, 2.13, 8.20, suppf,
2022-11-12,14.62, 1.74, 21.47, 2.11, 2.16, 8.33, suppf,
2022-11-13,5.93, -2.07, 13.80, 2.09, 2.15, 8.39, suppf,
2022-11-14,8.21, -1.75, 9.87, 2.11, 2.19, 8.54, suppf,
2022-11-15,10.39, -6.19, 14.18, 2.16, 2.18, 8.51, suppf,
2022-11-16,7.02, -4.07, 12.67, 2.16, 2.24, 8.67, suppf,
2022-11-17,4.90, -4.13, 15.65, 2.09, 2.16, 8.42, suppf,
2022-11-18,1.86, -0.99, 3.18, 2.10, 2.13, 8.26, suppf,
2022-11-19,7.41, 3.31, 2.30, 2.09, 2.12, 8.26, suppf,
2022-11-20,11.67, 2.67, 5.27, 2.12, 2.16, 8.43, suppf,
2022-11-21,8.95, 3.30, 13.41, 2.12, 2.16, 8.46, suppf,
2022-11-22,9.23, -1.40, 3.61, 2.12, 2.18, 8.58, suppf,
2022-11-23,7.13, -0.79, 6.30, 2.11, 2.16, 8.42, suppf,
2022-11-24,9.92, -0.82, -9.57, 2.12, 2.17, 8.46, suppf,
2022-11-25,13.02, 6.06, 9.63, 2.16, 2.19, 8.51, suppf,
2022-11-26,11.25, 1.23, 2.29, 2.17, 2.23, 8.71, suppf,
2022-11-27,7.69, -1.32, 8.51, 2.09, 2.17, 8.45, suppf,
2022-11-28,13.76, -0.12, 5.15, 2.13, 2.20, 8.49, suppf,
2022-11-29,0.63, -3.47, 15.14, 2.12, 2.15, 8.41, suppf,
2022-11-30,13.04, -2.85, 5.04, 2.12, 2.16, 8.33, suppf,
2022-12-01,2.54, 4.32, 11.37, 2.13, 2.22, 8.59, suppf,
2022-12-02,11.49, 2.18, 9.05, 2.13, 2.17, 8.52, suppf,
2022-12-03,6.09, -3.45, 10.98, 2.09, 2.15, 8.33, suppf,
2022-12-04,8.28, 4.54, 4.16, 2.14, 2.19, 8.50, suppf,
2022-12-05,10.83, -4.54, 14.37, 2.11, 2.15, 8.44, suppf,
2022-12-06,9.16, 0.91, -3.94, 2.14, 2.16, 8.49, suppf,
2022-12-07,9.40, -2.31, 0.30, 2.16, 2.22, 8.76, suppf,
2022-12-08,8.08, 4.12, -3.11, 2.16, 2.20, 8.72, suppf,
2022-12-09,6.59, 0.42, 11.59, 2.09, 2.16, 8.31, suppf,
2022-12-10,11.80, -0.88, 9.31, 2.09, 2.15, 8.35, suppf,
2022-12-11,9.85, 0.94, 10.49, 2.12, 2.18, 8.60, suppf,
2022-12-12,7.71, 1.81, 16.51, 2.16, 2.27, 8.99, suppf,
2022-12-13,8.63, 5.81, -6.25, 2.17, 2.19, 8.71, suppf,
2022-12-14,4.53, 1.23, 12.90, 2.16, 2.20, 8.65, suppf,
2022-12-15,3.45, 0.70, -6.27, 2.15, 2.23, 8.77, suppf,
2022-12-16,5.93, -4.90, 1.71, 2.17, 2.22, 8.92, suppf,
2022-12-17,10.35, -2.40, 11.54, 2.12, 2.18, 8.54, suppf,
2022-12-18,11.20, -0.29, 11.74, 2.18, 2.22, 8.87, suppf,
2022-12-19,6.65, 1.28, 2.91, 2.08, 2.14, 8.22, suppf,
2022-12-20,14.37, 0.60, -0.78, 2.15, 2.22, 8.60, suppf,
2022-12-21,4.69, -3.84, 9.18, 2.14, 2.19, 8.48, suppf,
2022-12-22,5.37, 0.66, 6.58, 2.13, 2.18, 8.60, suppf,
2022-12-23,8.59, -0.80, 3.49, 2.11, 2.18, 8.43, suppf,
2022-12-24,9.73, -0.15, 0.38, 2.11, 2.16, 8.36, suppf,
2022-12-25,15.38, 3.90, 2.06, 2.10, 2.16, 8.43, suppf,
2022-12-26,7.64, 7.08, 1.99, 2.14, 2.20, 8.65, suppf,
2022-12-27,2.08, 8.18, 0.07, 2.20, 2.29, 8.87, suppf,
2022-12-28,7.10, 6.04, 3.54, 2.19, 2.26, 8.83, suppf,
2022-12-29,17.94, 6.30, 17.09, 2.10, 2.17, 8.45, suppf,
2022-12-30,12.89, 6.86, 3.47, 2.14, 2.17, 8.45, suppf,
2022-12-31,4.00, 7.99, 5.03, 2.13, 2.20, 8.58, suppf,
2023-01-01,8.12, 6.08, -5.92, 2.15, 2.17, 8.50, suppf,
2023-01-02,6.71, 6.02, -3.19, 2.11, 2.17, 8.54, suppf,
2023-01-03,3.37, 1.29, 10.78, 2.13, 2.23, 8.84, suppf,
2023-01-04,5.60, 4.49, 1.09, 2.12, 2.14, 8.27, suppf,
2023-01-05,2.03, 1.90, 13.56, 2.10, 2.15, 8.26, suppf,
2023-01-06,9.60, 4.01, 6.41, 2.12, 2.15, 8.36, suppf,
2023-01-07,9.45, 5.41, 12.20, 2.14, 2.16, 8.51, suppf,
2023-01-08,4.74, 2.02, 19.21, 2.13, 2.20, 8.74, suppf,
2023-01-09,8.46, 2.60, 7.91, 2.12, 2.15, 8.51, suppf,
2023-01-10,11.22, 8.05, 9.62, 2.11, 2.19, 8.56, suppf,
2023-01-11,9.73, 7.82, 2.02, 2.15, 2.21, 8.66, suppf,
2023-01-12,20.21, 5.88, 11.42, 2.10, 2.14, 8.30, suppf,
2023-01-13,16.54, 7.31, 20.87, 2.14, 2.24, 8.76, suppf,
2023-01-14,14.01, 5.52, 5.77, 2.15, 2.19, 8.52, suppf,
2023-01-15,10.35, 12.02, 8.30, 2.12, 2.17, 8.18, suppf,
2023-01-16,7.28, 6.36, -0.86, 2.13, 2.14, 8.32, suppf,
2023-01-17,4.96, 7.42, 3.08, 2.10, 2.17, 8.46, suppf,
2023-01-18,2.48, 4.72, 5.39, 2.15, 2.23, 8.64, suppf,
2023-01-19,7.98, 7.04, 10.86, 2.12, 2.18, 8.42, suppf,
2023-01-20,11.92, 4.25, 19.10, 2.16, 2.17, 8.39, suppf,
2023-01-21,11.45, 4.92, 3.45, 2.19, 2.21, 8.50, suppf,
2023-01-22,7.05, 0.98, 11.00, 2.27, 2.23, 8.81, suppf,
2023-01-23,9.22, 1.49, 14.74, 2.24, 2.18, 8.64, suppf,
2023-01-24,6.45, 1.02, 16.73, 2.21, 2.26, 8.91, suppf,
2023-01-25,10.52, 2.93, 19.41, 2.26, 2.33, 8.75, suppf,
2023-01-26,7.80, 7.61, 1.69, 2.25, 2.36, 9.08, suppf,
2023-01-27,5.81, 2.08, -1.94, 2.23, 2.30, 8.93, suppf,
2023-01-28,3.58, 4.45, 3.39, 2.20, 2.21, 8.54, suppf,
2023-01-29,4.58, 4.01, 12.93, 2.30, 2.27, 9.01, suppf,
2023-01-30,6.09, 0.87, 8.48, 2.25, 2.29, 9.14, suppf,
2023-01-31,5.94, 2.07, 18.50, 2.26, 2.21, 8.59, suppf,
2023-02-01,11.72, 4.53, 8.53, 2.26, 2.28, 8.94, suppf,
2023-02-02,7.49, 2.12, 5.87, 2.31, 2.30, 8.95, suppf,
2023-02-03,10.79, 3.48, 10.56, 2.30, 2.32, 9.20, suppf,
2023-02-04,9.12, 3.03, 14.37, 2.20, 2.19, 8.52, suppf,
2023-02-05,14.65, 6.57, 5.74, 2.18, 2.20, 8.53, suppf,
2023-02-06,15.07, 6.89, 19.54, 2.21, 2.23, 8.55, suppf,
2023-02-07,14.42, 6.02, 7.24, 2.21, 2.19, 8.28, suppf,
2023-02-08,5.26, 2.97, 23.54, 2.23, 2.21, 8.39, suppf,
2023-02-09,5.38, 1.51, 7.02, 2.25, 2.22, 8.40, suppf,
2023-02-10,5.10, 1.37, 5.28, 2.25, 2.24, 8.59, suppf,
2023-02-11,6.76, 6.40, -1.22, 2.21, 2.20, 8.48, suppf,
2023-02-12,10.47, 5.60, 8.09, 2.28, 2.35, 9.14, suppf,
2023-02-13,13.24, 8.21, -1.36, 2.24, 2.27, 8.48, suppf,
2023-02-14,2.73, 5.05, 12.77, 2.24, 2.31, 8.54, suppf,
2023-02-15,6.79, -3.04, 17.07, 2.25, 2.24, 8.42, suppf,
2023-02-16,12.26, 3.23, 4.11, 2.22, 2.28, 8.67, suppf,
2023-02-17,14.03, 7.46, 14.84, 2.25, 2.29, 9.13, suppf,
2023-02-18,4.76, 4.66, 22.67, 2.18, 2.21, 8.60, suppf,
2023-02-19,3.03, 4.44, 8.62, 2.16, 2.16, 8.28, suppf,
2023-02-20,6.96, 12.07, 6.96, 2.28, 2.29, 8.97, suppf,
2023-02-21,7.71, 4.00, 7.31, 2.17, 2.21, 8.48, suppf,
2023-02-22,7.22, 7.34, 16.11, 2.13, 2.20, 8.16, suppf,
2023-02-23,3.29, 3.17, 9.02, 2.15, 2.24, 8.29, suppf,
2023-02-24,6.27, 7.54, 11.40, 2.18, 2.20, 8.66, suppf,
2023-02-25,7.59, 8.55, 6.87, 2.16, 2.21, 8.32, suppf,
2023-02-26,11.57, 8.78, 17.81, 2.13, 2.25, 8.53, suppf,
2023-02-27,11.66, 4.39, 13.09, 2.26, 2.25, 8.52, suppf,
2023-02-28,7.11, 8.33, 14.44, 2.19, 2.24, 8.53, suppf,
2023-03-01,10.89, 7.92, 1.57, 2.16, 2.19, 8.47, suppf,
2023-03-02,7.15, 6.48, 4.65, 2.18, 2.21, 8.40, suppf,
2023-03-03,5.96, 3.57, 11.18, 2.21, 2.20, 8.25, suppf,
2023-03-04,2.21, 4.31, 7.94, 2.19, 2.26, 8.43, suppf,
2023-03-05,1.83, 4.48, 20.13, 2.22, 2.31, 8.65, suppf,
2023-03-06,10.73, 1.11, 16.56, 2.25, 2.31, 8.71, suppf,
2023-03-07,9.62, 8.67, 33.07, 2.21, 2.29, 8.70, suppf,
2023-03-08,4.42, 10.52, 11.83, 2.28, 2.35, 8.65, suppf,
2023-03-09,12.12, 1.38, 9.75, 2.31, 2.36, 8.82, suppf,
2023-03-10,7.56, 8.05, 20.84, 2.22, 2.31, 8.60, suppf,
2023-03-11,3.22, 5.65, 14.95, 2.26, 2.38, 8.99, suppf,
2023-03-12,6.53, 4.65, 15.76, 2.18, 2.27, 8.45, suppf,
2023-03-13,7.08, 10.25, 25.39, 2.27, 2.38, 9.23, suppf,
2023-03-14,9.43, 5.91, 26.98, 2.20, 2.26, 8.30, suppf,
2023-03-15,7.83, 9.36, 13.50, 2.17, 2.28, 8.26, suppf,
2023-03-16,-3.68, 7.03, 16.20, 2.19, 2.27, 8.59, suppf,
2023-03-17,3.80, 0.26, 6.50, 2.19, 2.25, 8.46, suppf,
2023-03-18,9.06, 4.54, 12.24, 2.22, 2.32, 8.89, suppf,
2023-03-19,6.41, 4.07, 19.49, 2.19, 2.30, 8.66, suppf,
2023-03-20,4.69, 3.68, 17.39, 2.21, 2.25, 8.46, suppf,
2023-03-21,0.48, 10.70, 13.18, 2.22, 2.27, 8.65, suppf,
2023-03-22,5.81, 8.20, 5.60, 2.30, 2.33, 9.19, suppf,
2023-03-23,2.57, 4.38, 10.90, 2.19, 2.27, 8.33, suppf,
2023-03-24,-0.43, 7.42, 4.83, 2.16, 2.18, 8.01, suppf,
2023-03-25,0.33, 5.34, 13.21, 2.14, 2.20, 8.29, suppf,
2023-03-26,-1.01, 1.37, 17.00, 2.23, 2.30, 8.89, final,
2023-03-27,3.07, 2.71, 21.81, 2.20, 2.30, 9.02, final,
2023-03-28,6.71, 5.53, 16.67, 2.11, 2.17, 8.33, final,
2023-03-29,7.02, 4.39, 19.07, 2.27, 2.26, 8.89, final,
2023-03-30,-1.28, 0.55, 3.42, 2.25, 2.21, 8.49, final,
2023-03-31,6.20, 2.08, 24.24, 2.12, 2.19, 8.25, final,
2023-04-01,5.43, 5.58, 17.08, 2.08, 2.15, 8.29, final,
2023-04-02,5.68, 4.73, 2.95, 2.21, 2.23, 8.99, final,
2023-04-03,2.80, 6.35, 1.19, 2.23, 2.28, 8.96, final,
2023-04-04,2.29, 2.50, 16.38, 2.30, 2.39, 9.83, final,
2023-04-05,4.85, 5.26, 25.22, 2.26, 2.27, 9.20, final,
2023-04-06,10.39, 5.41, 23.76, 2.33, 2.27, 9.32, final,
2023-04-07,4.79, 12.52, 20.68, 2.30, 2.35, 9.72, final,
2023-04-08,6.15, 7.29, 5.32, 2.25, 2.28, 9.12, final,
2023-04-09,3.54, 6.28, 4.02, 2.20, 2.26, 8.98, final,
2023-04-10,-1.70, 4.51, 10.63, 2.24, 2.26, 9.10, final,
2023-04-11,1.39, 5.76, 13.61, 2.30, 2.33, 9.49, final,
2023-04-12,4.51, 7.40, 28.02, 2.33, 2.30, 9.45, final,
2023-04-13,3.56, 3.63, 20.66, 2.32, 2.37, 9.76, final,
2023-04-14,3.06, 4.18, 1.96, 2.31, 2.32, 9.25, final,
2023-04-15,3.53, 2.09, 10.17, 2.37, 2.35, 9.66, final,
2023-04-16,6.25, 1.50, 13.74, 2.28, 2.24, 8.93, final,
2023-04-17,3.81, 4.24, 13.44, 2.20, 2.27, 9.08, final,
2023-04-18,-2.16, 3.72, 7.29, 2.21, 2.21, 8.77, final,
2023-04-19,1.00, 6.15, 17.92, 2.18, 2.15, 8.43, final,
2023-04-20,-0.74, 0.27, 22.31, 2.28, 2.26, 9.21, final,
2023-04-21,0.99, -1.49, 20.62, 2.23, 2.23, 8.94, final,
2023-04-22,-5.09, -0.87, 16.41, 2.22, 2.19, 8.93, final,
2023-04-23,1.96, -1.33, 11.64, 2.22, 2.18, 8.61, final,
2023-04-24,4.67, 5.26, 11.78, 2.18, 2.13, 8.43, final,
2023-04-25,1.62, 2.41, 6.21, 2.25, 2.20, 8.84, final,
2023-04-26,4.96, 0.78, 12.29, 2.24, 2.17, 8.67, final,
2023-04-27,6.52, 5.64, 19.36, 2.15, 2.11, 8.22, final,
2023-04-28,6.49, 2.62, 7.44, 2.28, 2.21, 8.84, final,
2023-04-29,6.09, 0.95, 6.85, 2.21, 2.14, 8.37, final,
2023-04-30,5.39, 1.10, 2.88, 2.35, 2.23, 9.28, final,
2023-05-01,6.94, 3.97, 1.91, 2.27, 2.20, 8.93, final,
2023-05-02,4.13, 5.35, 3.72, 2.33, 2.21, 9.21, final,
2023-05-03,-2.22, 8.04, -2.98, 2.28, 2.23, 8.91, final,
2023-05-04,3.53, 6.81, 8.18, 2.33, 2.18, 8.94, final,
2023-05-05,1.46, 8.16, 3.56, 2.27, 2.23, 8.96, final,
2023-05-06,2.67, 3.73, 11.73, 2.23, 2.16, 8.68, final,
2023-05-07,5.66, 2.99, 1.91, 2.18, 2.15, 8.63, final,
2023-05-08,2.50, 0.63, -3.37, 2.27, 2.21, 9.17, final,
2023-05-09,-0.60, 2.40, -2.99, 2.37, 2.25, 9.25, final,
2023-05-10,-2.40, 2.07, 1.37, 2.33, 2.28, 9.48, final,
2023-05-11,-2.01, 6.74, 7.95, 2.26, 2.20, 8.76, final,
2023-05-12,1.79, -0.91, 4.29, 2.14, 2.08, 8.18, final,
2023-05-13,3.44, 6.66, 7.92, 2.33, 2.22, 9.04, final,
2023-05-14,1.12, 2.40, 9.94, 2.26, 2.19, 8.92, final,
2023-05-15,2.70, 5.96, 8.00, 2.33, 2.23, 9.13, final,
2023-05-16,4.61, 5.88, 10.38, 2.34, 2.26, 9.25, final,
2023-05-17,1.15, 9.85, -2.37, 2.34, 2.25, 9.60, final,
2023-05-18,6.11, 7.49, 15.51, 2.35, 2.31, 9.24, final,
2023-05-19,4.21, 1.57, 3.92, 2.39, 2.26, 9.13, final,
2023-05-20,5.49, 3.90, 9.65, 2.19, 2.11, 8.36, final,
2023-05-21,3.66, 5.67, 2.71, 2.19, 2.11, 8.33, final,
2023-05-22,2.43, 4.44, 15.48, 2.18, 2.12, 8.39, final,
2023-05-23,0.11, 9.21, 12.53, 2.27, 2.20, 8.97, final,
2023-05-24,2.38, 6.30, 12.95, 2.34, 2.25, 9.33, final,
2023-05-25,2.73, 6.46, 9.56, 2.15, 2.12, 8.51, final,
2023-05-26,7.56, 10.61, 14.93, 2.17, 2.09, 8.39, final,
2023-05-27,4.01, 11.36, 15.92, 2.20, 2.16, 8.68, final,
2023-05-28,2.93, 10.60, 11.52, 2.20, 2.12, 8.50, final,
2023-05-29,6.07, 8.98, 4.84, 2.30, 2.23, 9.17, final,
2023-05-30,0.78, 9.64, 19.02, 2.29, 2.27, 9.14, final,
2023-05-31,0.52, 5.88, 13.87, 2.20, 2.13, 8.67, final,
2023-06-01,3.30, 11.34, 13.75, 2.15, 2.09, 8.40, final,
2023-06-02,3.04, 13.20, 7.61, 2.32, 2.32, 9.70, final,
2023-06-03,1.30, 14.36, 14.90, 2.19, 2.17, 8.95, final,
2023-06-04,5.68, 14.29, 2.64, 2.23, 2.17, 8.69, final,
2023-06-05,3.19, 7.13, -1.37, 2.23, 2.16, 8.84, final,
2023-06-06,4.04, 9.14, 17.10, 2.28, 2.13, 8.89, final,
2023-06-07,3.75, 7.71, 21.70, 2.16, 2.10, 8.28, final,
2023-06-08,2.00, 13.80, 16.63, 2.28, 2.23, 9.23, final,
2023-06-09,4.45, 9.37, 8.08, 2.27, 2.23, 8.82, final,
2023-06-10,6.17, 11.41, 5.69, 2.13, 2.08, 8.23, final,
2023-06-11,8.71, 14.33, 10.28, 2.16, 2.09, 8.28, rapid,
2023-06-12,5.04, 17.59, 24.27, 2.27, 2.27, 8.78, rapid,
2023-06-13,8.61, 12.55, 19.08, 2.18, 2.13, 8.32, rapid,
2023-06-14,9.53, 15.23, 22.59, 2.31, 2.25, 9.01, rapid,
2023-06-15,6.70, 18.73, 2.91, 2.22, 2.16, 8.47, rapid,
2023-06-16,8.11, 19.28, 19.31, 2.16, 2.11, 8.20, rapid,
2023-06-17,8.55, 16.36, 23.67, 2.18, 2.15, 8.43, rapid,
2023-06-18,0.96, 14.93, 20.90, 2.19, 2.20, 8.64, rapid,
2023-06-19,1.50, 14.43, 8.86, 2.14, 2.11, 8.28, rapid,
2023-06-20,5.20, 17.32, 15.88, 2.17, 2.11, 8.20, rapid,
2023-06-21,5.14, 11.19, 22.54, 2.25, 2.19, 8.87, rapid,
2023-06-22,8.01, 13.30, 15.73, 2.24, 2.21, 8.62, rapid,
2023-06-23,11.23, 15.33, 13.08, 2.27, 2.20, 8.69, rapid,
2023-06-24,4.78, 15.33, 1.70, 2.19, 2.16, 8.39, rapid,
2023-06-25,5.97, 11.80, 9.57, 2.20, 2.20, 8.50, rapid,
2023-06-26,10.48, 22.11, 11.41, 2.18, 2.14, 8.53, rapid,
